Regional Weather Roundup
Issued by NWS

Home | Current Version | Previous Version | Graphics & Text | Print | Product List | Glossary On
Versions: 1 2 3 4 5 6 7 8 9 10 11 12 13 14 15 16 17 18 19 20 21 22 23 24 25 26 27 28 29 30 31 32 33 34 35 36 37 38 39 40 41 42 43 44 45 46 47 48 49 50
000
ASUS43 KLSX 021859
RWRMO

WEATHER SUMMARY FOR MISSOURI
NATIONAL WEATHER SERVICE SPRINGFIELD MO
200 PM CDT SUN AUG 02 2015

NOTE: "FAIR" INDICATES FEW OR NO CLOUDS BELOW 12,000 FEET WITH NO
       SIGNIFICANT WEATHER AND/OR OBSTRUCTIONS TO VISIBILITY.
       CURRENT SKY AND/OR WEATHER CONDITIONS ARE NOT AVAILABLE FOR
       CHILLICOTHE AND FARMINGTON.

MOZ001>031-035>038-043-044-053-054-022000-
...NORTHERN AND WESTERN MISSOURI...

CITY           SKY/WX    TMP DP  RH WIND       PRES   REMARKS
KANSAS CTY INT MOSUNNY   89  70  53 W10       29.90F HX  94
KANSAS C DTWN  SUNNY     92  67  43 SW12      29.89S HX  95
LEE`S SUMMIT   SUNNY     91  66  43 SW14      29.91F HX  93
ST JOSEPH      SUNNY     88  73  61 W9G20     29.87F HX  95
CHILLICOTHE      N/A     90  72  55 SW9       29.88S HX  97
KIRKSVILLE     MOSUNNY   90  73  57 SW9       29.87F HX  98

$$
MOZ066>068-077>081-088>096-101>105-022000-
...SOUTHWEST MISSOURI...

CITY           SKY/WX    TMP DP  RH WIND       PRES   REMARKS
SPRINGFIELD    SUNNY     92  61  35 W10       29.96F HX  92
JOPLIN         PTSUNNY   93  63  36 S16G23    29.96F HX  94

$$
MOZ032>034-039>042-045>050-055>058-069>072-022000-
...CENTRAL MISSOURI...

CITY           SKY/WX    TMP DP  RH WIND       PRES   REMARKS
COLUMBIA       SUNNY     89  70  53 SW13      29.92F HX  94
JEFFERSON CITY SUNNY     90  66  45 SW15      29.90F HX  92
ROLLA          SUNNY     90  68  48 SW10      29.93F HX  94
SEDALIA        SUNNY     90  68  48 SW9       29.93S HX  94
WHITEMAN AFB   SUNNY     91  67  44 SW14      29.90F HX  94
WARRENSBURG    SUNNY     90  64  43 W13       29.90F HX  91
OSAGE BEACH    SUNNY     91  64  40 W9        29.94S HX  93

$$
MOZ051-052-059>065-022000-
...EAST CENTRAL MISSOURI...

CITY           SKY/WX    TMP DP  RH WIND       PRES   REMARKS
ST LOUIS INTL  MOSUNNY   94  68  42 W12       29.90F HX  98
SPIRIT OF STL  MOSUNNY   92  71  50 SW12      29.89F HX  98
ST CHARLES     SUNNY     93  69  45 W13       29.88F HX  98

$$
MOZ072>076-082>087-097>100-106>115-022000-
...SOUTH CENTRAL AND SOUTHEAST MISSOURI...

CITY           SKY/WX    TMP DP  RH WIND       PRES   REMARKS
CAPE GIRARDEAU SUNNY     88  73  61 SW7       29.93F HX  95
FARMINGTON     MOSUNNY   88  68  51 W5        29.98F HX  91
POPLAR BLUFF   MOSUNNY   89  73  59 S9        29.93F HX  97
WEST PLAINS    SUNNY     90  65  43 CALM      29.99F HX  92

$$



USA.gov is the U.S. government's official web portal to all federal, state and local government web resources and services.